Regional Weather Roundup
Issued by NWS

Home | Current Version | Previous Version | Text Only | Print | Product List | Glossary Off
Versions: 1 2 3 4 5 6 7 8 9 10 11 12 13 14 15 16 17 18 19 20 21 22 23 24 25 26 27 28 29 30 31 32 33 34 35 36 37 38 39 40 41 42 43 44 45 46 47 48 49 50

000
ASUS44 KMEG 060110
RWRTN
TENNESSEE HOURLY STATE WEATHER ROUNDUP
NATIONAL WEATHER SERVICE MEMPHIS TN
800 PM CDT SUN JUL 05 2015

TNZ002-004-019-021-049-052-054-088>092-060200-
WEST TENNESSEE

CITY           SKY/WX    TMP DP  RH WIND       PRES   REMARKS
MEMPHIS INTL   PTCLDY    79  71  76 SW10      30.06R
NWS MEMPHIS      N/A     80 N/A N/A MISG        N/A
JACKSON        PTCLDY    78  71  79 S5        30.05R
DYERSBURG        N/A    N/A N/A N/A MISG        N/A
PARIS          MOCLDY    79  70  73 CALM      30.06R
LEXINGTON      CLEAR     77  72  83 S3        30.05S
$$

TNZ008-025-027-028-033-062-065-066-060200-
NORTH MIDDLE TENNESSEE

CITY           SKY/WX    TMP DP  RH WIND       PRES   REMARKS
NASHVILLE      MOCLDY    80  71  74 VRB3      30.05R
CLARKSVILLE    CLEAR     79  67  66 W3        30.05R
SMYRNA         PTCLDY    81  72  74 SW3       30.06R
COOKEVILLE     CLEAR     75  73  94 CALM      30.06S
CROSSVILLE     PTCLDY    71  66  84 CALM      30.11F
$$

TNZ061-075-076-078-094-096-097-060200-
SOUTH MIDDLE TENNESSEE

CITY           SKY/WX    TMP DP  RH WIND       PRES   REMARKS
FAYETTEVILLE   CLEAR     73  70  88 W3        30.09R
TULLAHOMA      CLOUDY    75  70  83 CALM      30.10R
WINCHESTER     PTCLDY    75  70  83 CALM      30.09R
MCMINNVILLE    PTCLDY    75  72  88 SW3       30.08R
COLUMBIA       CLEAR     79  73  83 S3        30.06R
SHELBYVILLE    CLEAR     79  73  83 SW6         N/A
$$

TNZ017-018-042-046-047-060200-
NORTHEAST TENNESSEE

CITY           SKY/WX    TMP DP  RH WIND       PRES   REMARKS
TRI CITIES     CLOUDY    71  66  84 SW6       30.08R
ELIZABETHTON   CLOUDY    68  66  94 CALM      30.10R
$$

TNZ012-013-036-069-073-074-060200-
CENTRAL EAST TENNESSEE

CITY           SKY/WX    TMP DP  RH WIND       PRES   REMARKS
KNOXVILLE      CLOUDY    71  66  84 S8        30.07S
OAK RIDGE      CLOUDY    73  68  84 CALM      30.08S
GATLINBURG     CLOUDY    72  63  73 SW5       30.08S
MORRISTOWN     PTCLDY    68  68 100 SW9       30.09S
$$

TNZ083-085-099-060200-
SOUTHEAST TENNESSEE

CITY           SKY/WX    TMP DP  RH WIND       PRES   REMARKS
CHATTANOOGA    MOCLDY    79  67  66 SW5       30.07R
$$

SKY/WX REPORTED AS FAIR MEANS FEW OR NO CLOUDS BELOW
12 THOUSAND FEET.



USA.gov is the U.S. government's official web portal to all federal, state and local government web resources and services.